| time (UTC) | temp F | wind direction | speed knots | gust knots | rain 1hr in | rain 24hr in | rain mn in | humidity % | barometer mb |
| 20260903233103 | 75 | 257 | 1.7 | 11.3 | 0.00 | 0.00 | 0.00 | 69 | 1019.4 |
| 20260903232552 | 75 | 295 | 6.1 | 13.0 | 0.00 | 0.00 | 0.00 | 69 | 1019.2 |
| 20260903232055 | 74 | 301 | 7.0 | 13.0 | 0.00 | 0.00 | 0.00 | 68 | 1019.2 |
| 20260903231600 | 75 | 344 | 7.0 | 11.3 | 0.00 | 0.00 | 0.00 | 71 | 1019.2 |
| 20260903231054 | 75 | 319 | 6.1 | 10.4 | 0.00 | 0.00 | 0.00 | 70 | 1019.1 |
| 20260903230556 | 75 | 288 | 5.2 | 11.3 | 0.00 | 0.00 | 0.00 | 69 | 1019.1 |
| 20260903230107 | 75 | 319 | 7.0 | 11.3 | 0.00 | 0.00 | 0.00 | 67 | 1019.0 |
| 20260903225553 | 76 | 295 | 4.3 | 9.6 | 0.00 | 0.00 | 0.00 | 67 | 1019.1 |
| 20260903225052 | 76 | 295 | 6.1 | 8.7 | 0.00 | 0.00 | 0.00 | 68 | 1019.1 |
| 20260903224610 | 75 | 276 | 4.3 | 10.4 | 0.00 | 0.00 | 0.00 | 68 | 1019.2 |
| 20260903224055 | 75 | 313 | 4.3 | 10.4 | 0.00 | 0.00 | 0.00 | 67 | 1019.1 |
| 20260903223557 | 75 | 300 | 6.1 | 8.7 | 0.00 | 0.00 | 0.00 | 69 | 1019.3 |
| 20260903223104 | 76 | 285 | 6.1 | 8.7 | 0.00 | 0.00 | 0.00 | 69 | 1019.2 |
| 20260903222553 | 76 | 296 | 2.6 | 6.1 | 0.00 | 0.00 | 0.00 | 71 | 1019.1 |
| 20260903222053 | 76 | 258 | 1.7 | 6.1 | 0.00 | 0.00 | 0.00 | 76 | 1019.0 |
| 20260903221604 | 74 | 235 | 0.9 | 6.1 | 0.00 | 0.00 | 0.00 | 76 | 1019.1 |
| 20260903221054 | 74 | 243 | 2.6 | 6.1 | 0.00 | 0.00 | 0.00 | 74 | 1018.8 |
| 20260903220554 | 75 | 255 | 3.5 | 6.1 | 0.00 | 0.00 | 0.00 | 72 | 1018.8 |
| 20260903220120 | 77 | 285 | 2.6 | 5.2 | 0.00 | 0.00 | 0.00 | 70 | 1018.8 |
| 20260903215556 | 78 | 248 | 2.6 | 4.3 | 0.00 | 0.00 | 0.00 | 68 | 1019.1 |
| 20260903215055 | 79 | 248 | 2.6 | 5.2 | 0.00 | 0.00 | 0.00 | 65 | 1019.1 |
| 20260903214600 | 80 | 271 | 2.6 | 5.2 | 0.00 | 0.00 | 0.00 | 64 | 1019.3 |
| 20260903214055 | 81 | 216 | 0.9 | 5.2 | 0.00 | 0.00 | 0.00 | 58 | 1019.3 |
| 20260903213554 | 82 | 188 | 0.9 | 5.2 | 0.00 | 0.00 | 0.00 | 54 | 1019.3 |
| 20260903213104 | 83 | 219 | 0.0 | 1.7 | 0.00 | 0.00 | 0.00 | 54 | 1019.1 |
| 20260903212553 | 83 | 0 | 0.0 | 3.5 | 0.00 | 0.00 | 0.00 | 50 | 1019.1 |
| 20260903212055 | 83 | 177 | 0.9 | 4.3 | 0.00 | 0.00 | 0.00 | 50 | 1019.2 |
| 20260903211604 | 83 | 186 | 0.0 | 4.3 | 0.00 | 0.00 | 0.00 | 49 | 1019.3 |
| 20260903211053 | 84 | 238 | 1.7 | 4.3 | 0.00 | 0.00 | 0.00 | 51 | 1019.3 |
| 20260903210552 | 85 | 209 | 0.9 | 3.5 | 0.00 | 0.00 | 0.00 | 46 | 1019.3 |
| 20260903210103 | 85 | 194 | 0.9 | 3.5 | 0.00 | 0.00 | 0.00 | 46 | 1019.4 |
| 20260903205556 | 85 | 162 | 0.9 | 4.3 | 0.00 | 0.00 | 0.00 | 46 | 1019.5 |
| 20260903205058 | 85 | 0 | 1.7 | 5.2 | 0.00 | 0.00 | 0.00 | 46 | 1019.4 |
| 20260903204600 | 84 | 0 | 0.9 | 6.1 | 0.00 | 0.00 | 0.00 | 46 | 1019.4 |
| 20260903204055 | 84 | 174 | 2.6 | 6.1 | 0.00 | 0.00 | 0.00 | 45 | 1019.5 |
| 20260903203555 | 84 | 327 | 0.9 | 3.5 | 0.00 | 0.00 | 0.00 | 46 | 1019.5 |
| 20260903203100 | 84 | 188 | 0.9 | 4.3 | 0.00 | 0.00 | 0.00 | 46 | 1019.6 |
| 20260903202558 | 84 | 0 | 0.9 | 4.3 | 0.00 | 0.00 | 0.00 | 46 | 1019.6 |
| 20260903202055 | 84 | 256 | 1.7 | 4.3 | 0.00 | 0.00 | 0.00 | 45 | 1019.7 |
| 20260903201606 | 84 | 231 | 0.9 | 7.0 | 0.00 | 0.00 | 0.00 | 46 | 1019.8 |
| 20260903201052 | 84 | 244 | 1.7 | 7.0 | 0.00 | 0.00 | 0.00 | 47 | 1019.9 |
| 20260903200555 | 84 | 164 | 3.5 | 7.0 | 0.00 | 0.00 | 0.00 | 46 | 1020.0 |
| 20260903200109 | 84 | 167 | 0.9 | 8.7 | 0.00 | 0.00 | 0.00 | 47 | 1020.1 |
| 20260903195552 | 84 | 172 | 3.5 | 9.6 | 0.00 | 0.00 | 0.00 | 46 | 1020.1 |
| 20260903195052 | 84 | 146 | 4.3 | 11.3 | 0.00 | 0.00 | 0.00 | 46 | 1020.1 |
| 20260903194603 | 84 | 173 | 5.2 | 11.3 | 0.00 | 0.00 | 0.00 | 47 | 1020.3 |
| 20260903194053 | 84 | 180 | 3.5 | 8.7 | 0.00 | 0.00 | 0.00 | 47 | 1020.3 |
| 20260903193555 | 85 | 156 | 4.3 | 8.7 | 0.00 | 0.00 | 0.00 | 46 | 1020.3 |
| 20260903193107 | 85 | 127 | 1.7 | 6.1 | 0.00 | 0.00 | 0.00 | 45 | 1020.4 |
| 20260903192555 | 85 | 82 | 1.7 | 6.1 | 0.00 | 0.00 | 0.00 | 45 | 1020.4 |
| 20260903192054 | 84 | 94 | 2.6 | 6.1 | 0.00 | 0.00 | 0.00 | 45 | 1020.4 |
| 20260903191604 | 84 | 285 | 0.9 | 6.1 | 0.00 | 0.00 | 0.00 | 46 | 1020.6 |
| 20260903191053 | 83 | 0 | 2.6 | 6.1 | 0.00 | 0.00 | 0.00 | 46 | 1020.6 |
| 20260903190552 | 83 | 176 | 2.6 | 6.1 | 0.00 | 0.00 | 0.00 | 47 | 1020.8 |
| 20260903185552 | 84 | 174 | 1.7 | 7.0 | 0.00 | 0.00 | 0.00 | 46 | 1020.9 |
| 20260903185052 | 84 | 105 | 3.5 | 8.7 | 0.00 | 0.00 | 0.00 | 46 | 1020.9 |
| 20260903184602 | 84 | 129 | 4.3 | 8.7 | 0.00 | 0.00 | 0.00 | 46 | 1020.9 |
| 20260903184057 | 84 | 48 | 1.7 | 4.3 | 0.00 | 0.00 | 0.00 | 46 | 1021.1 |
| 20260903183555 | 84 | 49 | 2.6 | 6.1 | 0.00 | 0.00 | 0.00 | 48 | 1021.0 |
| 20260903183102 | 83 | 7 | 2.6 | 6.1 | 0.00 | 0.00 | 0.00 | 48 | 1021.2 |
| 20260903182552 | 84 | 17 | 3.5 | 6.1 | 0.00 | 0.00 | 0.00 | 47 | 1021.3 |
| 20260903182059 | 84 | 18 | 2.6 | 5.2 | 0.00 | 0.00 | 0.00 | 47 | 1021.5 |
| 20260903181604 | 83 | 42 | 1.7 | 5.2 | 0.00 | 0.00 | 0.00 | 49 | 1021.6 |
| 20260903181055 | 83 | 355 | 2.6 | 7.0 | 0.00 | 0.00 | 0.00 | 47 | 1021.7 |
| 20260903180558 | 83 | 339 | 3.5 | 7.0 | 0.00 | 0.00 | 0.00 | 47 | 1021.9 |
| 20260903180110 | 83 | 29 | 1.7 | 5.2 | 0.00 | 0.00 | 0.00 | 50 | 1022.0 |
| 20260903175558 | 83 | 25 | 2.6 | 6.1 | 0.00 | 0.00 | 0.00 | 50 | 1022.0 |
| 20260903175053 | 83 | 1 | 1.7 | 6.1 | 0.00 | 0.00 | 0.00 | 50 | 1022.0 |
| 20260903174603 | 82 | 359 | 2.6 | 6.1 | 0.00 | 0.00 | 0.00 | 52 | 1022.0 |
| 20260903174055 | 82 | 352 | 3.5 | 6.1 | 0.00 | 0.00 | 0.00 | 50 | 1022.1 |
| 20260903173552 | 82 | 32 | 1.7 | 5.2 | 0.00 | 0.00 | 0.00 | 52 | 1022.2 |
| 20260903173101 | 81 | 3 | 1.7 | 6.1 | 0.00 | 0.00 | 0.00 | 52 | 1022.1 |
| 20260903172554 | 81 | 59 | 1.7 | 6.1 | 0.00 | 0.00 | 0.00 | 52 | 1022.2 |
| 20260903172058 | 80 | 46 | 4.3 | 6.1 | 0.00 | 0.00 | 0.00 | 53 | 1022.3 |
| 20260903171612 | 80 | 215 | 0.9 | 4.3 | 0.00 | 0.00 | 0.00 | 53 | 1022.3 |
| 20260903171058 | 80 | 243 | 1.7 | 5.2 | 0.00 | 0.00 | 0.00 | 53 | 1022.3 |
| 20260903170555 | 80 | 0 | 2.6 | 7.0 | 0.00 | 0.00 | 0.00 | 53 | 1022.3 |
| 20260903170110 | 80 | 124 | 2.6 | 7.0 | 0.00 | 0.00 | 0.00 | 53 | 1022.3 |
| 20260903165556 | 80 | 129 | 3.5 | 6.1 | 0.00 | 0.00 | 0.00 | 54 | 1022.3 |
| 20260903165052 | 79 | 37 | 0.9 | 6.1 | 0.00 | 0.00 | 0.00 | 57 | 1022.2 |
| 20260903164602 | 79 | 52 | 2.6 | 6.1 | 0.00 | 0.00 | 0.00 | 57 | 1022.2 |
| 20260903164055 | 79 | 42 | 1.7 | 4.3 | 0.00 | 0.00 | 0.00 | 59 | 1022.3 |
| 20260903163555 | 78 | 53 | 2.6 | 4.3 | 0.00 | 0.00 | 0.00 | 61 | 1022.1 |
| 20260903163102 | 78 | 8 | 1.7 | 4.3 | 0.00 | 0.00 | 0.00 | 62 | 1022.3 |
| 20260903162555 | 77 | 358 | 1.7 | 4.3 | 0.00 | 0.00 | 0.00 | 62 | 1022.2 |
| 20260903162055 | 77 | 354 | 1.7 | 3.5 | 0.00 | 0.00 | 0.00 | 63 | 1022.3 |
| 20260903161608 | 77 | 354 | 0.9 | 2.6 | 0.00 | 0.00 | 0.00 | 64 | 1022.2 |
| 20260903161055 | 76 | 354 | 0.9 | 3.5 | 0.00 | 0.00 | 0.00 | 64 | 1022.3 |
| 20260903160555 | 76 | 354 | 1.7 | 3.5 | 0.00 | 0.00 | 0.00 | 63 | 1022.3 |
| 20260903160105 | 76 | 354 | 1.7 | 4.3 | 0.00 | 0.00 | 0.00 | 65 | 1022.3 |
| 20260903155551 | 75 | 355 | 1.7 | 4.3 | 0.00 | 0.00 | 0.00 | 67 | 1022.3 |
| 20260903155054 | 75 | 354 | 0.0 | 2.6 | 0.00 | 0.00 | 0.00 | 67 | 1022.3 |
| 20260903154604 | 75 | 354 | 0.9 | 2.6 | 0.00 | 0.00 | 0.00 | 68 | 1022.3 |
| 20260903154056 | 74 | 353 | 0.9 | 2.6 | 0.00 | 0.00 | 0.00 | 68 | 1022.2 |
| 20260903153557 | 74 | 353 | 0.9 | 2.6 | 0.00 | 0.00 | 0.00 | 68 | 1022.2 |
| 20260903153103 | 74 | 336 | 0.9 | 2.6 | 0.00 | 0.00 | 0.00 | 69 | 1022.1 |
| 20260903152552 | 74 | 328 | 0.9 | 2.6 | 0.00 | 0.00 | 0.00 | 68 | 1022.2 |
| 20260903152057 | 74 | 323 | 0.9 | 2.6 | 0.00 | 0.00 | 0.00 | 69 | 1022.2 |
| 20260903151612 | 74 | 0 | 0.0 | 1.7 | 0.00 | 0.00 | 0.00 | 69 | 1022.2 |
| 20260903151055 | 74 | 321 | 0.9 | 1.7 | 0.00 | 0.00 | 0.00 | 70 | 1022.2 |
| 20260903150556 | 73 | 321 | 0.9 | 1.7 | 0.00 | 0.00 | 0.00 | 69 | 1022.2 |
| 20260903150106 | 73 | 0 | 0.0 | 2.6 | 0.00 | 0.00 | 0.00 | 71 | 1022.3 |
| 20260903145555 | 73 | 320 | 0.9 | 2.6 | 0.00 | 0.00 | 0.00 | 70 | 1022.3 |
| 20260903145055 | 73 | 319 | 0.9 | 2.6 | 0.00 | 0.00 | 0.00 | 70 | 1022.3 |
| 20260903144608 | 73 | 294 | 0.0 | 2.6 | 0.00 | 0.00 | 0.00 | 70 | 1022.2 |
| 20260903144055 | 73 | 0 | 0.9 | 3.5 | 0.00 | 0.00 | 0.00 | 69 | 1022.2 |
| 20260903143554 | 73 | 294 | 0.0 | 3.5 | 0.00 | 0.00 | 0.00 | 69 | 1022.3 |
| 20260903143110 | 73 | 294 | 0.9 | 3.5 | 0.00 | 0.00 | 0.00 | 69 | 1022.2 |
| 20260903142556 | 73 | 0 | 0.0 | 3.5 | 0.00 | 0.00 | 0.00 | 69 | 1022.3 |
| 20260903142055 | 73 | 160 | 0.9 | 4.3 | 0.00 | 0.00 | 0.00 | 70 | 1022.4 |
| 20260903141601 | 73 | 158 | 1.7 | 6.1 | 0.00 | 0.00 | 0.00 | 70 | 1022.3 |
| 20260903141055 | 72 | 174 | 2.6 | 6.1 | 0.00 | 0.00 | 0.00 | 71 | 1022.2 |
| 20260903140556 | 72 | 170 | 3.5 | 6.1 | 0.00 | 0.00 | 0.00 | 71 | 1022.2 |
| 20260903140105 | 71 | 173 | 3.5 | 7.0 | 0.00 | 0.00 | 0.00 | 72 | 1022.1 |
| 20260903135555 | 71 | 155 | 3.5 | 7.8 | 0.00 | 0.00 | 0.00 | 73 | 1022.1 |
| 20260903135055 | 70 | 150 | 4.3 | 7.8 | 0.00 | 0.00 | 0.00 | 74 | 1022.1 |
| 20260903134610 | 70 | 148 | 5.2 | 7.8 | 0.00 | 0.00 | 0.00 | 74 | 1022.0 |
| 20260903134054 | 69 | 152 | 3.5 | 7.8 | 0.00 | 0.00 | 0.00 | 75 | 1022.1 |
| 20260903133555 | 69 | 145 | 3.5 | 7.8 | 0.00 | 0.00 | 0.00 | 76 | 1022.0 |
| 20260903133109 | 69 | 141 | 3.5 | 6.1 | 0.00 | 0.00 | 0.00 | 76 | 1022.0 |
| 20260903132555 | 68 | 148 | 3.5 | 5.2 | 0.00 | 0.00 | 0.00 | 76 | 1022.0 |
| 20260903132056 | 68 | 151 | 2.6 | 7.0 | 0.00 | 0.00 | 0.00 | 76 | 1021.9 |
| 20260903131608 | 68 | 171 | 3.5 | 7.0 | 0.00 | 0.00 | 0.00 | 76 | 1021.9 |
| 20260903131055 | 68 | 162 | 4.3 | 7.0 | 0.00 | 0.00 | 0.00 | 76 | 1021.8 |
| 20260903130554 | 68 | 149 | 3.5 | 6.1 | 0.00 | 0.00 | 0.00 | 76 | 1021.7 |
| 20260903130111 | 68 | 139 | 3.5 | 7.0 | 0.00 | 0.00 | 0.00 | 76 | 1021.6 |
| 20260903125556 | 68 | 133 | 3.5 | 7.0 | 0.00 | 0.00 | 0.00 | 76 | 1021.6 |
| 20260903125056 | 68 | 119 | 3.5 | 7.0 | 0.00 | 0.00 | 0.00 | 76 | 1021.6 |
| 20260903124610 | 68 | 127 | 4.3 | 7.0 | 0.00 | 0.00 | 0.00 | 76 | 1021.6 |
| 20260903124056 | 68 | 122 | 2.6 | 6.1 | 0.00 | 0.00 | 0.00 | 76 | 1021.5 |
| 20260903123557 | 68 | 125 | 2.6 | 5.2 | 0.00 | 0.00 | 0.00 | 75 | 1021.5 |
| 20260903123104 | 68 | 126 | 2.6 | 9.6 | 0.00 | 0.00 | 0.00 | 75 | 1021.4 |
| 20260903122555 | 69 | 134 | 3.5 | 9.6 | 0.00 | 0.00 | 0.00 | 75 | 1021.5 |
| 20260903122056 | 69 | 148 | 5.2 | 9.6 | 0.00 | 0.00 | 0.00 | 75 | 1021.4 |
| 20260903121604 | 69 | 158 | 5.2 | 8.7 | 0.00 | 0.00 | 0.00 | 74 | 1021.5 |
| 20260903121055 | 69 | 155 | 5.2 | 9.6 | 0.00 | 0.00 | 0.00 | 74 | 1021.5 |
| 20260903120558 | 69 | 148 | 5.2 | 9.6 | 0.00 | 0.00 | 0.00 | 74 | 1021.5 |
| 20260903120106 | 69 | 123 | 4.3 | 9.6 | 0.00 | 0.00 | 0.00 | 74 | 1021.5 |
| 20260903115555 | 70 | 162 | 5.2 | 10.4 | 0.00 | 0.00 | 0.00 | 73 | 1021.5 |
| 20260903115054 | 70 | 132 | 6.1 | 10.4 | 0.00 | 0.00 | 0.00 | 73 | 1021.4 |
| 20260903114611 | 70 | 155 | 7.0 | 10.4 | 0.00 | 0.00 | 0.00 | 73 | 1021.4 |
| 20260903114057 | 70 | 153 | 7.0 | 10.4 | 0.00 | 0.00 | 0.00 | 73 | 1021.3 |
| 20260903113601 | 70 | 161 | 5.2 | 8.7 | 0.00 | 0.00 | 0.00 | 73 | 1021.4 |
| 20260903113112 | 70 | 139 | 6.1 | 9.6 | 0.00 | 0.00 | 0.00 | 74 | 1021.3 |
| 20260903112556 | 70 | 146 | 6.1 | 9.6 | 0.00 | 0.00 | 0.00 | 74 | 1021.3 |
| 20260903112059 | 71 | 153 | 6.1 | 11.3 | 0.00 | 0.00 | 0.00 | 74 | 1021.3 |
| 20260903111601 | 71 | 126 | 7.0 | 11.3 | 0.00 | 0.00 | 0.00 | 75 | 1021.3 |
| 20260903111057 | 71 | 136 | 6.1 | 9.6 | 0.00 | 0.00 | 0.00 | 75 | 1021.1 |
| 20260903110554 | 72 | 136 | 4.3 | 7.0 | 0.00 | 0.00 | 0.00 | 75 | 1021.1 |
| 20260903110107 | 72 | 146 | 4.3 | 7.0 | 0.00 | 0.00 | 0.00 | 75 | 1021.0 |
| 20260903105559 | 72 | 123 | 3.5 | 6.1 | 0.00 | 0.00 | 0.00 | 74 | 1021.0 |
| 20260903105057 | 72 | 130 | 2.6 | 5.2 | 0.00 | 0.00 | 0.00 | 73 | 1021.0 |
| 20260903104607 | 72 | 122 | 3.5 | 5.2 | 0.00 | 0.00 | 0.00 | 74 | 1021.0 |
| 20260903104054 | 72 | 103 | 2.6 | 4.3 | 0.00 | 0.00 | 0.00 | 74 | 1021.1 |
| 20260903103556 | 72 | 47 | 0.9 | 4.3 | 0.00 | 0.00 | 0.00 | 74 | 1021.1 |
| 20260903103104 | 72 | 44 | 2.6 | 6.1 | 0.00 | 0.00 | 0.00 | 74 | 1021.0 |
| 20260903102557 | 72 | 3 | 3.5 | 6.1 | 0.00 | 0.00 | 0.00 | 74 | 1021.1 |
| 20260903102055 | 72 | 15 | 0.0 | 4.3 | 0.00 | 0.00 | 0.00 | 73 | 1021.1 |
| 20260903101611 | 72 | 0 | 0.0 | 0.9 | 0.00 | 0.00 | 0.00 | 73 | 1021.0 |
| 20260903101056 | 72 | 0 | 0.0 | 0.9 | 0.00 | 0.00 | 0.00 | 72 | 1021.2 |
| 20260903100556 | 72 | 0 | 0.0 | 0.9 | 0.00 | 0.00 | 0.00 | 72 | 1021.2 |
| 20260903095555 | 73 | 0 | 0.0 | 4.3 | 0.00 | 0.00 | 0.00 | 71 | 1021.1 |
| 20260903095056 | 73 | 0 | 1.7 | 4.3 | 0.00 | 0.00 | 0.00 | 72 | 1021.1 |
| 20260903094609 | 73 | 123 | 0.0 | 2.6 | 0.00 | 0.00 | 0.00 | 71 | 1021.2 |
| 20260903094056 | 73 | 0 | 0.0 | 0.0 | 0.00 | 0.00 | 0.00 | 70 | 1021.2 |
| 20260903093559 | 73 | 0 | 0.0 | 1.7 | 0.00 | 0.00 | 0.00 | 69 | 1021.2 |
| 20260903093107 | 74 | 0 | 0.0 | 2.6 | 0.00 | 0.00 | 0.00 | 69 | 1021.1 |
| 20260903092600 | 74 | 0 | 0.9 | 2.6 | 0.00 | 0.00 | 0.00 | 69 | 1021.3 |
| 20260903092056 | 74 | 123 | 0.9 | 2.6 | 0.00 | 0.00 | 0.00 | 69 | 1021.3 |
| 20260903091607 | 74 | 123 | 0.0 | 1.7 | 0.00 | 0.00 | 0.00 | 69 | 1021.4 |
| 20260903091053 | 74 | 123 | 0.0 | 1.7 | 0.00 | 0.00 | 0.00 | 69 | 1021.3 |
| 20260903090611 | 74 | 123 | 0.9 | 2.6 | 0.00 | 0.00 | 0.00 | 69 | 1021.3 |
| 20260903090105 | 74 | 123 | 0.0 | 2.6 | 0.00 | 0.00 | 0.00 | 69 | 1021.3 |
| 20260903085555 | 74 | 0 | 0.0 | 2.6 | 0.00 | 0.00 | 0.00 | 69 | 1021.4 |
| 20260903085053 | 74 | 0 | 0.0 | 2.6 | 0.00 | 0.00 | 0.00 | 69 | 1021.5 |
| 20260903084604 | 74 | 123 | 0.0 | 2.6 | 0.00 | 0.00 | 0.00 | 69 | 1021.4 |
| 20260903084056 | 73 | 123 | 0.9 | 2.6 | 0.00 | 0.00 | 0.00 | 69 | 1021.5 |
| 20260903083553 | 73 | 123 | 0.9 | 2.6 | 0.00 | 0.00 | 0.00 | 69 | 1021.6 |
| 20260903083104 | 73 | 0 | 0.0 | 0.9 | 0.00 | 0.00 | 0.00 | 70 | 1021.7 |
| 20260903082555 | 73 | 0 | 0.0 | 0.0 | 0.00 | 0.00 | 0.00 | 70 | 1021.7 |
| 20260903082055 | 73 | 0 | 0.0 | 0.0 | 0.00 | 0.00 | 0.00 | 69 | 1021.9 |
| 20260903081601 | 73 | 0 | 0.0 | 0.0 | 0.00 | 0.00 | 0.00 | 69 | 1021.9 |
| 20260903081056 | 73 | 0 | 0.0 | 2.6 | 0.00 | 0.00 | 0.00 | 70 | 1021.8 |
| 20260903080556 | 74 | 0 | 0.0 | 2.6 | 0.00 | 0.00 | 0.00 | 71 | 1021.8 |
| 20260903075554 | 74 | 0 | 0.0 | 3.5 | 0.00 | 0.00 | 0.00 | 70 | 1021.9 |
| 20260903075054 | 74 | 0 | 0.0 | 3.5 | 0.00 | 0.00 | 0.00 | 70 | 1021.8 |
| 20260903074603 | 74 | 0 | 0.9 | 2.6 | 0.00 | 0.00 | 0.00 | 69 | 1021.9 |
| 20260903074056 | 74 | 123 | 0.9 | 3.5 | 0.00 | 0.00 | 0.00 | 68 | 1021.8 |
| 20260903073555 | 74 | 123 | 1.7 | 3.5 | 0.00 | 0.00 | 0.00 | 69 | 1021.9 |
| 20260903073105 | 74 | 123 | 1.7 | 2.6 | 0.00 | 0.00 | 0.00 | 68 | 1021.9 |
| 20260903072556 | 74 | 123 | 1.7 | 3.5 | 0.00 | 0.00 | 0.00 | 68 | 1021.9 |
| 20260903072055 | 75 | 123 | 1.7 | 3.5 | 0.00 | 0.00 | 0.00 | 68 | 1022.0 |
| 20260903071604 | 75 | 123 | 1.7 | 2.6 | 0.00 | 0.00 | 0.00 | 68 | 1021.9 |
| 20260903071059 | 75 | 123 | 0.0 | 2.6 | 0.00 | 0.00 | 0.00 | 68 | 1022.0 |
| 20260903070556 | 75 | 0 | 0.0 | 0.9 | 0.00 | 0.00 | 0.00 | 67 | 1022.0 |
| 20260903070105 | 75 | 0 | 0.0 | 0.9 | 0.00 | 0.00 | 0.00 | 66 | 1021.9 |
| 20260903065554 | 75 | 0 | 0.0 | 1.7 | 0.00 | 0.00 | 0.00 | 66 | 1022.0 |
| 20260903065057 | 75 | 0 | 0.0 | 1.7 | 0.00 | 0.00 | 0.00 | 65 | 1021.8 |
| 20260903064603 | 75 | 123 | 0.0 | 1.7 | 0.00 | 0.00 | 0.00 | 65 | 1021.9 |
| 20260903064055 | 76 | 0 | 0.0 | 2.6 | 0.00 | 0.00 | 0.00 | 65 | 1021.8 |
| 20260903063554 | 76 | 123 | 0.0 | 3.5 | 0.00 | 0.00 | 0.00 | 65 | 1021.7 |
| 20260903063104 | 76 | 123 | 1.7 | 3.5 | 0.00 | 0.00 | 0.00 | 64 | 1021.7 |
| 20260903062556 | 76 | 123 | 0.9 | 4.3 | 0.00 | 0.00 | 0.00 | 64 | 1021.7 |
| 20260903062056 | 76 | 123 | 1.7 | 4.3 | 0.00 | 0.00 | 0.00 | 64 | 1021.6 |
| 20260903061617 | 76 | 123 | 1.7 | 4.3 | 0.00 | 0.00 | 0.00 | 64 | 1021.6 |
| 20260903061054 | 76 | 122 | 2.6 | 6.1 | 0.00 | 0.00 | 0.00 | 64 | 1021.6 |
| 20260903060555 | 75 | 114 | 2.6 | 7.0 | 0.00 | 0.00 | 0.00 | 64 | 1021.6 |
| 20260903060145 | 75 | 129 | 3.5 | 7.0 | 0.00 | 0.00 | 0.00 | 65 | 1021.5 |
| 20260903023556 | 80 | 288 | 0.9 | 5.2 | 0.00 | 0.00 | 0.00 | 55 | 1020.7 |
| 20260903023135 | 80 | 299 | 2.6 | 5.2 | 0.00 | 0.00 | 0.00 | 54 | 1020.8 |
| 20260903022619 | 80 | 288 | 2.6 | 5.2 | 0.00 | 0.00 | 0.00 | 52 | 1020.6 |
| 20260903022058 | 80 | 292 | 2.6 | 6.1 | 0.00 | 0.00 | 0.00 | 51 | 1020.7 |
| 20260903021611 | 80 | 309 | 2.6 | 6.1 | 0.00 | 0.00 | 0.00 | 51 | 1020.5 |
| 20260903021055 | 80 | 288 | 3.5 | 6.1 | 0.00 | 0.00 | 0.00 | 51 | 1020.5 |
| 20260903020556 | 81 | 302 | 2.6 | 5.2 | 0.00 | 0.00 | 0.00 | 53 | 1020.6 |
| 20260903020108 | 81 | 307 | 2.6 | 5.2 | 0.00 | 0.00 | 0.00 | 53 | 1020.4 |
| 20260903015555 | 81 | 294 | 2.6 | 5.2 | 0.00 | 0.00 | 0.00 | 53 | 1020.2 |
| 20260903015055 | 81 | 305 | 2.6 | 5.2 | 0.00 | 0.00 | 0.00 | 52 | 1020.2 |
| 20260903014604 | 81 | 306 | 1.7 | 5.2 | 0.00 | 0.00 | 0.00 | 52 | 1020.2 |
| 20260903014149 | 81 | 297 | 1.7 | 4.3 | 0.00 | 0.00 | 0.00 | 51 | 1020.2 |